IRIDIUM 139

Last updated on Fri Sep 11 2026 00:03:06 GMT+0000 (Coordinated Universal Time)

1 42963U 17061J 26253.30771538 .00000160 00000+0 49956-4 0 9994 2 42963 86.4030 349.7502 0002194 93.3330 266.8117 14.34217539467045
UTC large
Height (km)
Speed (km/s)
/
Latitude / Longitude
Inclination (degrees)
Orbital Period (minutes)
Azimuth
Elevation
Range (km)
Doppler Factor

Next 0 passes for location: London (51.5072 / 0.1276)

No passes found over London.
IRIDIUM 139